DW2217 Weather Reports


time (UTC)temp
C
wind
direction
speed
KPH
gust
KPH
rain 1hr
cm
rain 24hr
cm
rain mn
cm
humidity
%
barometer
mb
20260904195958 24 309 4.8 11.3 0.00 0.00 0.00 60 1008.1
20260904195457 25 350 4.8 14.5 0.00 0.00 0.00 59 1008.1
20260904194955 24 299 4.8 4.8 0.00 0.00 0.00 61 1008.1
20260904194451 24 14 1.6 3.2 0.00 0.00 0.00 63 1008.1
20260904193945 24 319 4.8 11.3 0.00 0.00 0.00 60 1008.1
20260904193429 23 289 8.0 8.0 0.00 0.00 0.00 60 1008.2
20260904192925 23 289 8.0 8.0 0.00 0.00 0.00 60 1008.2
20260904192420 24 291 11.3 14.5 0.00 0.00 0.00 57 1008.2
20260904191916 24 309 4.8 14.5 0.00 0.00 0.00 58 1008.0
20260904191413 25 301 4.8 8.0 0.00 0.00 0.00 62 1008.2
20260904190909 24 326 8.0 11.3 0.00 0.00 0.00 64 1008.2
20260904190404 23 304 1.6 4.8 0.00 0.00 0.00 69 1008.5
20260904185901 23 16 3.2 3.2 0.00 0.00 0.00 70 1008.5
20260904185355 23 43 0.0 3.2 0.00 0.00 0.00 70 1008.5
20260904184855 23 24 1.6 3.2 0.00 0.00 0.00 69 1008.3
20260904184350 23 20 3.2 3.2 0.00 0.00 0.00 70 1008.2
20260904183840 23 43 1.6 3.2 0.00 0.00 0.00 69 1008.2
20260904183335 23 335 3.2 4.8 0.00 0.00 0.00 66 1008.2
20260904182830 24 3 3.2 4.8 0.00 0.00 0.00 64 1008.2
20260904182325 25 317 0.0 3.2 0.00 0.00 0.00 64 1008.1
20260904181820 25 301 4.8 8.0 0.00 0.00 0.00 61 1008.0
20260904181315 25 303 6.4 8.0 0.00 0.00 0.00 62 1008.1
20260904180810 25 71 4.8 8.0 0.00 0.00 0.00 68 1008.1
20260904180305 23 60 0.0 3.2 0.00 0.00 0.00 68 1008.1
20260904175804 23 18 0.0 3.2 0.00 0.00 0.00 71 1008.4
20260904175305 23 293 3.2 4.8 0.00 0.00 0.00 68 1008.3
20260904174758 23 321 3.2 8.0 0.00 0.00 0.00 71 1008.2
20260904174254 23 74 4.8 4.8 0.00 0.00 0.00 76 1008.3
20260904173749 22 13 0.0 3.2 0.00 0.00 0.00 76 1008.2
20260904173244 22 13 0.0 3.2 0.00 0.00 0.00 75 1008.3
20260904172741 22 312 3.2 4.8 0.00 0.00 0.00 75 1008.2
20260904172239 22 321 1.6 4.8 0.00 0.00 0.00 74 1008.4
20260904171734 22 5 3.2 3.2 0.00 0.00 0.00 80 1008.4
20260904171229 22 12 3.2 3.2 0.00 0.00 0.00 78 1008.6
20260904170726 22 14 0.0 3.2 0.00 0.00 0.00 80 1008.5
20260904170222 22 270 3.2 4.8 0.00 0.00 0.00 78 1008.4
20260904165721 22 32 1.6 3.2 0.00 0.00 0.00 79 1008.6
20260904165215 22 33 0.0 0.0 0.00 0.00 0.00 80 1008.6
20260904164709 22 33 0.0 3.2 0.00 0.00 0.00 80 1008.8
20260904164204 22 33 0.0 3.2 0.00 0.00 0.00 79 1008.7
20260904163700 22 32 0.0 3.2 0.00 0.00 0.00 78 1008.7
20260904163155 22 305 3.2 3.2 0.00 0.00 0.00 77 1008.8
20260904162654 23 298 6.4 8.0 0.00 0.00 0.00 75 1009.1
20260904162149 22 65 0.0 4.8 0.00 0.00 0.00 80 1009.0
20260904161645 22 58 0.0 0.0 0.00 0.00 0.00 81 1009.0
20260904161140 22 60 0.0 3.2 0.00 0.00 0.00 81 1009.0
20260904160636 22 9 1.6 3.2 0.00 0.00 0.00 81 1009.0
20260904160131 22 20 1.6 3.2 0.00 0.00 0.00 79 1009.1
20260904155626 22 286 3.2 11.3 0.00 0.00 0.00 78 1009.1
20260904155120 22 68 1.6 4.8 0.00 0.00 0.00 82 1009.0
20260904154613 22 92 3.2 3.2 0.00 0.00 0.00 83 1009.1
20260904154113 22 32 0.0 3.2 0.00 0.00 0.00 83 1009.1
20260904153608 22 61 0.0 4.8 0.00 0.00 0.00 83 1009.2
20260904153104 21 351 1.6 3.2 0.00 0.00 0.00 84 1009.3
20260904152600 21 286 4.8 4.8 0.00 0.00 0.00 85 1009.4
20260904152055 21 13 3.2 3.2 0.00 0.00 0.00 87 1009.7
20260904151550 21 50 0.0 3.2 0.00 0.00 0.00 86 1009.7
20260904151043 21 69 0.0 4.8 0.00 0.00 0.00 86 1009.6
20260904150538 20 63 1.6 3.2 0.00 0.00 0.00 87 1009.5
20260904150033 20 33 0.0 3.2 0.00 0.00 0.00 89 1009.6
20260904145532 20 111 0.0 0.0 0.00 0.00 0.00 92 1009.6
20260904145028 20 114 0.0 3.2 0.00 0.00 0.00 94 1009.7
20260904144524 20 146 3.2 3.2 0.00 0.00 0.00 94 1009.6
20260904144020 19 81 0.0 3.2 0.00 0.00 0.00 94 1009.6
20260904143515 20 77 0.0 3.2 0.00 0.00 0.00 95 1009.7
20260904143012 19 32 0.0 3.2 0.00 0.00 0.00 96 1009.6
20260904142508 19 68 0.0 0.0 0.00 0.00 0.00 96 1009.6
20260904142008 18 64 0.0 3.2 0.00 0.00 0.00 97 1009.9
20260904141502 18 50 0.0 0.0 0.00 0.00 0.00 98 1009.9
20260904140958 18 51 0.0 3.2 0.00 0.00 0.00 98 1010.0
20260904140453 18 74 3.2 3.2 0.00 0.00 0.00 98 1009.6
20260904135952 18 47 0.0 3.2 0.00 0.00 0.00 98 1009.7
20260904135446 18 18 3.2 4.8 0.00 0.00 0.00 98 1009.6
20260904134943 18 74 3.2 4.8 0.00 0.00 0.00 98 1009.7
20260904134443 17 48 0.0 3.2 0.00 0.00 0.00 98 1009.6
20260904133937 18 24 1.6 3.2 0.00 0.00 0.00 98 1009.7
20260904133432 17 20 3.2 3.2 0.00 0.00 0.00 98 1009.6
20260904132928 17 24 1.6 3.2 0.00 0.00 0.00 98 1009.7
20260904132423 17 75 0.0 0.0 0.00 0.00 0.00 98 1009.7
20260904131922 17 101 0.0 3.2 0.00 0.00 0.00 98 1009.7
20260904131418 17 68 1.6 3.2 0.00 0.00 0.00 98 1009.8
20260904130914 17 55 0.0 0.0 0.00 0.00 0.00 98 1009.8
20260904130412 17 55 0.0 0.0 0.00 0.00 0.00 98 1009.7
20260904125907 17 55 0.0 3.2 0.00 0.00 0.00 98 1009.8
20260904125404 17 40 0.0 0.0 0.00 0.00 0.00 98 1009.8
20260904124903 17 29 0.0 3.2 0.00 0.00 0.00 98 1009.9
20260904124400 17 37 0.0 3.2 0.00 0.00 0.00 98 1009.8
20260904123855 17 37 0.0 0.0 0.00 0.00 0.00 98 1009.8
20260904123350 16 37 0.0 3.2 0.00 0.00 0.00 98 1009.8
20260904122845 16 51 1.6 3.2 0.00 0.00 0.00 98 1009.7
20260904122344 16 107 1.6 3.2 0.00 0.00 0.00 98 1009.7
20260904121839 16 88 0.0 0.0 0.00 0.00 0.00 98 1010.0
20260904121336 16 22 0.0 3.2 0.00 0.00 0.00 98 1009.8
20260904120832 16 18 0.0 0.0 0.00 0.00 0.00 98 1009.8
20260904120327 16 16 0.0 3.2 0.00 0.00 0.00 98 1009.8
20260904115822 16 333 0.0 3.2 0.00 0.00 0.00 98 1009.8
20260904115318 16 340 0.0 0.0 0.00 0.00 0.00 98 1009.7
20260904114818 16 340 3.2 3.2 0.00 0.00 0.00 98 1009.9
20260904114312 16 340 0.0 0.0 0.00 0.00 0.00 98 1009.7
20260904113808 16 314 3.2 3.2 0.00 0.00 0.00 98 1009.5
20260904113307 16 3 3.2 3.2 0.00 0.00 0.00 98 1009.7
20260904112801 16 13 1.6 3.2 0.00 0.00 0.00 98 1009.5
20260904112257 16 18 1.6 3.2 0.00 0.00 0.00 98 1009.8
20260904111753 16 21 0.0 3.2 0.00 0.00 0.00 98 1009.7
20260904111248 16 21 0.0 3.2 0.00 0.00 0.00 98 1009.7
20260904110744 16 19 3.2 3.2 0.00 0.00 0.00 98 1009.6
20260904110243 16 30 3.2 3.2 0.00 0.00 0.00 98 1009.7
20260904105738 16 33 0.0 3.2 0.00 0.00 0.00 98 1009.8
20260904105233 16 38 0.0 0.0 0.00 0.00 0.00 98 1009.6
20260904104728 16 37 0.0 3.2 0.00 0.00 0.00 98 1009.7
20260904104223 16 38 0.0 0.0 0.00 0.00 0.00 98 1009.5
20260904103721 16 37 0.0 3.2 0.00 0.00 0.00 98 1009.4
20260904103215 16 37 1.6 3.2 0.00 0.00 0.00 98 1009.6
20260904102711 16 37 1.6 3.2 0.00 0.00 0.00 98 1009.5
20260904102206 16 46 1.6 3.2 0.00 0.00 0.00 98 1009.2
20260904101703 16 50 3.2 3.2 0.00 0.00 0.00 98 1009.3
20260904101158 16 70 0.0 0.0 0.00 0.00 0.00 98 1009.2
20260904100654 16 70 0.0 0.0 0.00 0.00 0.00 98 1009.3
20260904100149 16 70 0.0 0.0 0.00 0.00 0.00 98 1009.2
20260904095648 16 71 0.0 0.0 0.00 0.00 0.00 98 1009.4
20260904095143 16 71 0.0 0.0 0.00 0.00 0.00 98 1009.2
20260904094638 16 26 1.6 3.2 0.00 0.00 0.00 98 1009.6
20260904094133 16 11 0.0 3.2 0.00 0.00 0.00 98 1009.5
20260904093630 16 353 3.2 3.2 0.00 0.00 0.00 98 1009.5
20260904093129 16 299 3.2 3.2 0.00 0.00 0.00 98 1009.6
20260904092626 16 276 4.8 4.8 0.00 0.00 0.00 98 1009.3
20260904092122 16 292 4.8 4.8 0.00 0.00 0.00 98 1009.3
20260904091618 16 312 3.2 4.8 0.00 0.00 0.00 98 1009.2
20260904091117 16 275 4.8 4.8 0.00 0.00 0.00 98 1009.2
20260904090612 16 300 3.2 4.8 0.00 0.00 0.00 98 1009.2
20260904090108 16 318 3.2 3.2 0.00 0.00 0.00 98 1009.4
20260904085603 16 311 3.2 3.2 0.00 0.00 0.00 98 1009.2
20260904085102 16 289 3.2 4.8 0.00 0.00 0.00 98 1009.3
20260904084558 16 269 6.4 8.0 0.00 0.00 0.00 98 1009.2
20260904084054 16 293 0.0 3.2 0.00 0.00 0.00 98 1009.3
20260904083550 16 294 4.8 4.8 0.00 0.00 0.00 98 1009.4
20260904083046 16 297 3.2 4.8 0.00 0.00 0.00 98 1009.4
20260904082541 16 271 0.0 0.0 0.00 0.00 0.00 98 1009.3
20260904082036 16 270 1.6 3.2 0.00 0.00 0.00 98 1009.3
20260904081532 16 287 3.2 4.8 0.00 0.00 0.00 98 1009.3
20260904081027 16 308 3.2 4.8 0.00 0.00 0.00 98 1009.5
20260904080522 16 285 4.8 4.8 0.00 0.00 0.00 98 1009.3
20260904080019 16 284 4.8 4.8 0.00 0.00 0.00 98 1009.3
20260904075514 16 334 3.2 3.2 0.00 0.00 0.00 98 1009.4
20260904075009 16 337 0.0 0.0 0.00 0.00 0.00 98 1009.4
20260904074503 16 337 0.0 0.0 0.00 0.00 0.00 98 1009.4
20260904073958 16 337 0.0 0.0 0.00 0.00 0.00 98 1009.5
20260904073454 16 337 0.0 0.0 0.00 0.00 0.00 98 1009.4
20260904072949 16 337 0.0 0.0 0.00 0.00 0.00 98 1009.5
20260904072445 16 337 0.0 0.0 0.00 0.00 0.00 98 1009.8
20260904071944 16 337 0.0 0.0 0.00 0.00 0.00 98 1009.8
20260904071440 16 337 0.0 0.0 0.00 0.00 0.00 98 1009.8
20260904070935 16 337 0.0 3.2 0.00 0.00 0.00 98 1009.9
20260904070434 16 337 1.6 3.2 0.00 0.00 0.00 98 1009.7
20260904065934 16 337 0.0 0.0 0.00 0.00 0.00 98 1009.8
20260904065430 16 337 0.0 0.0 0.00 0.00 0.00 98 1009.8
20260904064925 16 337 0.0 3.2 0.00 0.00 0.00 98 1009.6
20260904064421 16 337 0.0 0.0 0.00 0.00 0.00 98 1009.8
20260904063916 16 337 0.0 0.0 0.00 0.00 0.00 98 1009.7
20260904063413 16 337 0.0 0.0 0.00 0.00 0.00 98 1009.8
20260904062907 16 337 0.0 0.0 0.00 0.00 0.00 98 1010.0
20260904062403 16 337 0.0 0.0 0.00 0.00 0.00 98 1010.0
20260904061859 16 337 0.0 3.2 0.00 0.00 0.00 98 1010.3
20260904061355 16 336 0.0 0.0 0.00 0.00 0.00 98 1010.2
20260904060851 16 337 0.0 0.0 0.00 0.00 0.00 98 1010.2
20260904060347 16 336 0.0 0.0 0.00 0.00 0.00 98 1010.2
20260904055842 16 336 0.0 0.0 0.00 0.00 0.00 98 1010.1
20260904055337 16 336 0.0 0.0 0.00 0.00 0.00 98 1010.4
20260904054832 16 336 3.2 3.2 0.00 0.00 0.00 98 1010.5
20260904054328 16 336 0.0 0.0 0.00 0.00 0.00 98 1010.4
20260904053824 16 335 0.0 0.0 0.00 0.00 0.00 98 1010.9
20260904053323 16 335 0.0 3.2 0.00 0.00 0.00 98 1010.8
20260904052819 16 335 0.0 3.2 0.00 0.00 0.00 98 1010.8
20260904052316 16 339 0.0 3.2 0.00 0.00 0.00 98 1010.9
20260904051812 16 338 3.2 3.2 0.00 0.00 0.00 98 1011.0
20260904051307 16 339 3.2 3.2 0.00 0.00 0.00 98 1011.0
20260904050802 16 339 1.6 3.2 0.00 0.00 0.00 98 1011.0
20260904050258 16 347 3.2 3.2 0.00 0.00 0.00 98 1011.0
20260904045753 16 346 1.6 3.2 0.00 0.00 0.00 98 1011.1
20260904045247 16 343 3.2 3.2 0.00 0.00 0.00 98 1010.9
20260904044742 16 10 0.0 0.0 0.00 0.00 0.00 98 1011.2
20260904044239 16 9 3.2 3.2 0.00 0.00 0.00 98 1011.1
20260904043735 16 13 1.6 3.2 0.00 0.00 0.00 98 1010.9
20260904043231 16 15 0.0 0.0 0.00 0.00 0.00 98 1011.1
20260904042726 16 15 0.0 0.0 0.00 0.00 0.00 98 1010.8
20260904042222 16 15 0.0 0.0 0.00 0.00 0.00 98 1011.1
20260904041721 16 15 0.0 0.0 0.00 0.00 0.00 98 1011.2
20260904041218 16 12 3.2 3.2 0.00 0.00 0.00 98 1011.1
20260904040714 16 17 0.0 0.0 0.00 0.00 0.00 98 1011.2
20260904040209 16 17 0.0 3.2 0.00 0.00 0.00 98 1011.3
20260904035705 16 16 0.0 0.0 0.00 0.61 0.61 98 1011.3
20260904035200 16 15 0.0 3.2 0.00 0.61 0.61 98 1011.3
20260904034659 16 27 1.6 3.2 0.00 0.61 0.61 98 1011.4
20260904034155 16 24 3.2 3.2 0.00 0.61 0.61 98 1011.5
20260904033651 16 30 0.0 3.2 0.00 0.61 0.61 98 1011.4
20260904033147 16 27 1.6 3.2 0.00 0.61 0.61 98 1011.5
20260904032643 16 30 0.0 0.0 0.00 0.61 0.61 98 1011.6
20260904032141 16 26 3.2 3.2 0.00 0.61 0.61 98 1011.7
20260904031636 16 59 0.0 0.0 0.00 0.61 0.61 98 1011.6
20260904031132 16 59 0.0 0.0 0.00 0.61 0.61 98 1011.4
20260904030627 16 60 0.0 3.2 0.00 0.61 0.61 98 1011.3
20260904030122 16 38 0.0 0.0 0.00 0.61 0.61 98 1011.6
20260904025618 16 38 0.0 3.2 0.00 0.61 0.61 98 1011.5
20260904025113 16 38 0.0 0.0 0.00 0.61 0.61 98 1011.7
20260904024608 16 37 1.6 3.2 0.00 0.61 0.61 98 1011.7
20260904024104 16 38 0.0 0.0 0.00 0.61 0.61 98 1011.6
20260904023559 16 38 0.0 3.2 0.00 0.61 0.61 98 1011.5
20260904023055 16 38 0.0 3.2 0.00 0.61 0.61 98 1011.7
20260904022550 16 38 1.6 3.2 0.00 0.61 0.61 98 1011.8
20260904022047 16 39 0.0 3.2 0.00 0.61 0.61 98 1011.5
20260904021542 16 39 0.0 0.0 0.00 0.61 0.61 98 1011.6
20260904021037 16 39 0.0 0.0 0.00 0.61 0.61 98 1011.9
20260904020532 16 39 0.0 0.0 0.00 0.61 0.61 98 1012.1
20260904020027 16 39 0.0 0.0 0.00 0.61 0.61 98 1012.1
20260904015521 16 38 0.0 0.0 0.00 0.61 0.61 98 1012.2
20260904015020 16 38 0.0 0.0 0.00 0.61 0.61 98 1012.3
20260904014515 16 37 1.6 3.2 0.00 0.61 0.61 98 1012.3
20260904014010 16 37 0.0 3.2 0.00 0.61 0.61 98 1012.4
20260904013507 16 37 0.0 0.0 0.00 0.61 0.61 98 1012.3
20260904013003 16 36 1.6 3.2 0.00 0.61 0.61 98 1012.5
20260904012502 16 51 3.2 3.2 0.18 0.61 0.61 98 1012.3
20260904011956 16 65 0.0 0.0 0.00 0.58 0.58 98 1012.3
20260904011451 16 104 0.0 0.0 0.00 0.58 0.58 98 1012.3
20260904010946 16 105 0.0 3.2 0.00 0.58 0.58 98 1012.3
20260904010443 16 105 3.2 3.2 0.00 0.58 0.58 98 1012.4
20260904005938 17 70 0.0 0.0 0.00 0.58 0.58 98 1012.0
20260904005434 17 70 0.0 0.0 0.00 0.58 0.58 98 1012.5
20260904004933 17 70 0.0 3.2 0.00 0.58 0.58 98 1012.4
20260904004430 17 70 0.0 3.2 0.00 0.58 0.58 98 1012.2
20260904003930 17 73 0.0 3.2 0.00 0.58 0.58 98 1012.0
20260904003426 17 73 0.0 0.0 0.00 0.58 0.58 98 1011.9
20260904002921 17 73 0.0 0.0 0.00 0.58 0.58 98 1012.1
20260904002417 17 72 0.0 0.0 0.00 0.58 0.58 98 1012.2
20260904001916 17 73 0.0 3.2 0.00 0.58 0.58 98 1012.2
20260904001412 17 72 0.0 0.0 0.00 0.58 0.58 98 1012.1
20260904000911 17 72 0.0 0.0 0.00 0.58 0.58 98 1012.3
20260904000406 17 72 0.0 0.0 0.00 0.58 0.58 98 1012.3
20260903235901 17 80 0.0 0.0 0.00 0.58 0.58 98 1012.3
20260903235357 17 65 0.0 0.0 0.00 0.58 0.58 98 1012.2
20260903234856 17 66 1.6 3.2 0.00 0.58 0.58 98 1012.0
20260903234352 17 66 0.0 0.0 0.00 0.58 0.58 98 1012.2
20260903233848 17 65 0.0 0.0 0.00 0.58 0.58 98 1012.0
20260903233344 17 65 0.0 0.0 0.00 0.58 0.58 98 1012.2
20260903232843 17 65 0.0 0.0 0.00 0.58 0.58 98 1012.0
20260903232339 17 65 0.0 0.0 0.00 0.58 0.58 98 1012.0
20260903231838 17 65 0.0 0.0 0.00 0.58 0.58 98 1012.1
20260903231334 17 65 0.0 0.0 0.00 0.58 0.58 98 1011.9
20260903230829 17 65 0.0 0.0 0.00 0.58 0.58 98 1012.3
20260903230324 17 65 0.0 0.0 0.00 0.58 0.58 98 1012.2
20260903225820 17 65 0.0 0.0 0.00 0.58 0.58 98 1012.2
20260903225316 17 65 0.0 0.0 0.00 0.58 0.58 98 1012.2
20260903224812 17 65 0.0 0.0 0.00 0.58 0.58 98 1012.0
20260903224308 17 65 0.0 0.0 0.00 0.58 0.58 98 1012.3
20260903223804 17 65 0.0 0.0 0.00 0.58 0.58 98 1012.3
20260903223302 17 65 0.0 0.0 0.00 0.58 0.58 98 1012.3
20260903222757 17 65 0.0 0.0 0.00 0.58 0.58 98 1012.3
20260903222256 17 65 0.0 0.0 0.00 0.58 0.58 98 1012.5
20260903221751 17 65 0.0 0.0 0.00 0.58 0.58 98 1012.3
20260903221249 17 65 0.0 0.0 0.00 0.58 0.58 98 1012.1
20260903220748 17 65 0.0 0.0 0.00 0.58 0.58 98 1012.3
20260903220243 17 65 0.0 0.0 0.00 0.58 0.58 98 1012.4
20260903215736 17 65 0.0 0.0 0.00 0.58 0.58 98 1012.2
20260903215232 17 65 0.0 0.0 0.00 0.58 0.58 98 1012.3
20260903214730 17 65 0.0 0.0 0.00 0.58 0.58 98 1012.4
20260903214226 17 65 0.0 0.0 0.00 0.58 0.58 98 1012.2
20260903213720 17 65 0.0 0.0 0.00 0.58 0.58 98 1012.2
20260903213216 17 65 0.0 0.0 0.00 0.58 0.58 98 1012.6
20260903212712 17 65 0.0 0.0 0.00 0.58 0.58 98 1012.4
20260903212208 17 65 0.0 0.0 0.00 0.58 0.58 98 1012.2
20260903211701 17 66 0.0 0.0 0.00 0.58 0.58 98 1012.3
20260903211158 17 65 0.0 0.0 0.00 0.58 0.58 98 1012.3
20260903210654 17 66 0.0 0.0 0.00 0.58 0.58 98 1012.2
20260903210150 17 65 0.0 0.0 0.00 0.58 0.58 98 1012.1
20260903205649 17 66 0.0 0.0 0.00 0.58 0.58 98 1012.3
20260903205148 17 65 0.0 0.0 0.00 0.58 0.58 98 1012.3
20260903204644 17 66 0.0 0.0 0.00 0.58 0.58 98 1012.1
20260903204140 17 66 0.0 0.0 0.00 0.58 0.58 98 1012.4
20260903203635 17 66 0.0 0.0 0.00 0.58 0.58 98 1012.4
20260903203130 17 66 0.0 0.0 0.00 0.58 0.58 98 1012.4
20260903202625 17 66 0.0 0.0 0.00 0.58 0.58 98 1012.4
20260903202120 17 66 0.0 0.0 0.00 0.58 0.58 98 1012.3
20260903201614 17 66 0.0 0.0 0.00 0.58 0.58 98 1012.4
20260903201114 17 66 0.0 0.0 0.00 0.58 0.58 98 1012.4
20260903200609 17 66 0.0 0.0 0.00 0.58 0.58 98 1012.5
20260903200104 17 66 0.0 0.0 0.00 0.58 0.58 98 1012.5